Palacios, TX

10:11 AM CDT on April 23, 2018 (GMT -0500)
Palacios Municipal

Weather History for KPSX - October, 2011

Change the Weather History Date:

Tuesday, October 4, 2011

  Actual Average Record
Temperature  
Mean Temperature 70 °F -  
Max Temperature 84 °F 85 °F 92 °F (1990)
Min Temperature 59 °F 66 °F 47 °F (1961)
Cooling Degree Days 6    
Growing Degree Days 20 (Base 50)    
Moisture  
Dew Point 62 °F    
Average Humidity 73    
Maximum Humidity 96    
Minimum Humidity 49    
Precipitation  
Precipitation 0.00 in - - ()
Sea Level Pressure  
Sea Level Pressure 30.15 in    
Wind  
Wind Speed 8 mph (East)    
Max Wind Speed 14 mph    
Max Gust Speed 20 mph    
Visibility 10 miles    
Events      
Averages and records for this station are not official NWS values.
T = Trace of Precipitation, MM = Missing Value Source: NWS Daily Summary

Daily Weather History Graph

Daily Weather History Graph

Search for Another Location

Airport or City:

Astronomy

Oct. 04, 2011 Rise Set
Actual Time 7:19 AM CDT 7:07 PM CDT
Civil Twilight 6:55 AM CDT 7:31 PM CDT
Nautical Twilight 6:28 AM CDT 7:58 PM CDT
Astronomical Twilight 6:01 AM CDT 8:25 PM CDT
Moon 2:40 PM CDT (10/4) 12:36 AM CDT (10/4)
Length of Visible Light 12h 35m
Length of Day
11h 48m
First Quarter, 56% of the Moon is Illuminated
Oct 4
First Quarter
Oct 11
Full
Oct 19
Last Quarter
Oct 26
New
Nov 2
First Quarter

Hourly Weather History & Observations

Time (CDT) Temp. Heat Index Dew Point Humidity Pressure Visibility Wind Dir Wind Speed Gust Speed Precip Events Conditions
12:53 AM 62.1 °F - 57.9 °F 86% 30.16 in 10.0 mi ENE 5.8 mph - N/A   Clear
1:53 AM 61.0 °F - 57.9 °F 90% 30.16 in 10.0 mi NE 6.9 mph - N/A   Clear
2:53 AM 61.0 °F - 57.0 °F 87% 30.14 in 10.0 mi NE 6.9 mph - N/A   Clear
3:53 AM 61.0 °F - 57.9 °F 90% 30.14 in 10.0 mi ENE 6.9 mph - N/A   Clear
4:53 AM 61.0 °F - 57.9 °F 90% 30.14 in 10.0 mi NE 6.9 mph - N/A   Clear
5:53 AM 60.8 °F - 57.2 °F 88% 30.16 in 10.0 mi NE 4.6 mph - N/A   Clear
6:53 AM 59.0 °F - 57.9 °F 96% 30.17 in 10.0 mi NE 5.8 mph - N/A   Partly Cloudy
7:53 AM 61.0 °F - 59.0 °F 93% 30.18 in 10.0 mi NE 5.8 mph - N/A   Clear
8:53 AM 69.1 °F - 62.1 °F 78% 30.19 in 10.0 mi ENE 8.1 mph - N/A   Clear
9:53 AM 77.0 °F - 63.0 °F 62% 30.21 in 10.0 mi ENE 9.2 mph - N/A   Clear
10:53 AM 80.1 °F 81.1 °F 61.0 °F 52% 30.21 in 10.0 mi ESE 12.7 mph - N/A   Clear
11:53 AM 82.0 °F 82.7 °F 61.0 °F 49% 30.20 in 10.0 mi SE 11.5 mph 19.6 mph N/A   Mostly Cloudy
12:53 PM 80.1 °F 81.2 °F 62.1 °F 54% 30.18 in 10.0 mi SE 8.1 mph - N/A   Partly Cloudy
1:53 PM 82.9 °F 84.4 °F 64.0 °F 53% 30.16 in 10.0 mi ESE 11.5 mph - N/A   Partly Cloudy
2:53 PM 82.9 °F 83.7 °F 62.1 °F 49% 30.13 in 10.0 mi SSE 12.7 mph - N/A   Partly Cloudy
3:53 PM 82.9 °F 84.0 °F 63.0 °F 51% 30.11 in 10.0 mi SSE 13.8 mph 19.6 mph N/A   Partly Cloudy
4:53 PM 82.4 °F 83.4 °F 62.6 °F 51% 30.10 in 10.0 mi ESE 9.2 mph - N/A   Clear
5:53 PM 81.0 °F 82.5 °F 64.0 °F 56% 30.09 in 10.0 mi ESE 12.7 mph - N/A   Clear
6:53 PM 78.8 °F - 64.4 °F 61% 30.10 in 10.0 mi ESE 9.2 mph - N/A   Clear
8:53 PM 72.0 °F - 66.0 °F 81% 30.12 in 10.0 mi East 6.9 mph - N/A   Clear
9:53 PM 71.1 °F - 66.9 °F 87% 30.12 in 10.0 mi East 6.9 mph - N/A   Clear
10:53 PM 70.0 °F - 66.9 °F 90% 30.12 in 10.0 mi East 6.9 mph - N/A   Clear
11:53 PM 69.1 °F - 66.0 °F 90% 30.11 in 10.0 mi East 6.9 mph - N/A   Clear